Regional Weather Roundup
Issued by NWS

Home | Current Version | Previous Version | Text Only | Print | Product List | Glossary Off
Versions: 1 2 3 4 5 6 7 8 9 10 11 12 13 14 15 16 17 18 19 20 21 22 23 24 25 26 27 28 29 30 31 32 33 34 35 36 37 38 39 40 41 42 43 44 45 46 47 48 49 50

000
ASUS45 KABQ 271610
RWRNM
NEW MEXICO REGIONAL WEATHER ROUNDUP
NATIONAL WEATHER SERVICE ALBUQUERQUE NM
1000 AM MDT SAT AUG 27 2016

NOTE: "FAIR" MEANS FEW OR NO CLOUDS BELOW 12,000 FEET AGL WITH NO
       SIGNIFICANT WEATHER OR OBSTRUCTIONS TO VISION.

      THIS PRODUCT IS RELEASED AS TWO VERSIONS.  ONE VERSION NEAR
      THE TOP OF THE HOUR CONTAINING PRELIMINARY DATA FROM ALBUQUERQUE
      AND OTHER STATIONS.  A FINAL VERSION WITH ADDITIONAL DATA IS
      ISSUED ABOUT 10 MINUTES AFTER THE HOUR.

NMZ501-503-504-510>518-271700-
NORTHWEST PLATEAU/NORTHCENTRAL MOUNTAINS

CITY           SKY/WX    TMP DP  RH WIND       PRES   REMARKS
FARMINGTON     FAIR      66  45  46 E5        30.20S
LOS ALAMOS     FAIR      61  50  67 NE5       30.33R
SANTA FE       FAIR      66  50  56 CALM      30.27R
TAOS           FAIR      63  45  51 CALM      30.32S
ANGEL FIRE     FAIR      57  46  66 SE3       30.38S

$$
NMZ402-403-502-505>509-271700-
WESTCENTRAL MOUNTAINS/SOUTHWEST MOUNTAINS

CITY           SKY/WX    TMP DP  RH WIND       PRES   REMARKS
GALLUP         FAIR      67  45  45 NW3       30.26S
GRANTS         FAIR      67  45  46 CALM      30.28F
SILVER CITY    PTSUNNY   71  53  53 SE3       30.22R

$$
NMZ407-409-411-412-271700-
SOUTHERN DESERTS

CITY           SKY/WX    TMP DP  RH WIND       PRES   REMARKS
DEMING         FAIR      75  59  57 VRB5      30.15R
LAS CRUCES     FAIR      76  58  53 SE7       30.16S
ALAMOGORDO     FAIR      75  57  53 CALM      30.16R
T OR C         FAIR      74  53  48 VRB3      30.17S

$$
NMZ519>523-271700-
CENTRAL VALLEYS/CENTRAL HIGHLANDS

CITY           SKY/WX    TMP DP  RH WIND       PRES   REMARKS
ALBUQUERQUE    FAIR      71  51  49 SW5       30.22S
DOUBLE EAGLE   MOSUNNY   68  52  56 VRB6      30.25R
MORIARTY ARPT  FAIR      67  49  52 N3        30.28S
CLINES CORNERS FAIR      67  48  50 W13       30.31
BELEN          FAIR      72  50  45 S5        30.21S
SOCORRO        FAIR      75  51  43 SE10      30.18S

$$
NMZ524>526-539-540-271700-
SOUTHCENTRAL MOUNTAINS

CITY           SKY/WX    TMP DP  RH WIND       PRES   REMARKS
RUIDOSO          N/A     68  46  45 S5        30.32S

$$
NMZ527>531-271700-
NORTHEAST HIGHLANDS/NORTHEAST PLAINS

CITY           SKY/WX    TMP DP  RH WIND       PRES   REMARKS
LAS VEGAS      FAIR      67  49  52 VRB5      30.28S
RATON          FAIR      65  49  56 S5        30.23S
CLAYTON        FAIR      74  57  55 W15       30.14S

$$
NMZ532>537-271700-
EASTCENTRAL PLAINS

CITY           SKY/WX    TMP DP  RH WIND       PRES   REMARKS
TUCUMCARI      FAIR      79  61  53 SW12      30.11F
CANNON AFB     FAIR      76  62  61 S12       30.15R
CLOVIS AIRPORT FAIR      75  61  60 S10       30.15S

$$
NMZ028-029-538-271700-
SOUTHEAST PLAINS

CITY           SKY/WX    TMP DP  RH WIND       PRES   REMARKS
ROSWELL        FAIR      75  62  64 SW8       30.12S
ARTESIA        FAIR      73  64  73 SE7       30.12S
CARLSBAD       FAIR      73  64  73 E3        30.10S
HOBBS          SUNNY     75  64  69 SE8       30.13F


$$




USA.gov is the U.S. government's official web portal to all federal, state and local government web resources and services.